EW2485 Weather Reports


Display with metric or nautical units.
time (UTC)temp
F
wind
direction
speed
MPH
gust
MPH
rain 1hr
in
rain 24hr
in
rain mn
in
humidity
%
barometer
mb
20260902194507 76 138 6.0 16.0 0.00 0.38 0.38 88 1014.6
20260902193035 77 142 6.0 14.0 0.00 0.38 0.38 89 1015.0
20260902191559 77 139 6.0 15.0 0.00 0.38 0.38 87 1015.5
20260902190023 76 183 5.0 12.0 0.00 0.38 0.38 89 1015.6
20260902184545 76 152 7.0 13.0 0.00 0.38 0.38 89 1015.7
20260902183013 75 143 4.0 11.0 0.00 0.38 0.38 91 1015.7
20260902181535 74 157 3.0 17.0 0.00 0.38 0.38 90 1015.6
20260902180059 75 213 3.0 18.0 0.00 0.38 0.38 90 1015.9
20260902180004 75 170 6.0 18.0 0.00 0.38 0.38 90 1015.9
20260902174536 75 120 5.0 13.0 0.00 0.38 0.38 90 1016.2
20260902173018 74 146 6.0 14.0 0.00 0.38 0.38 92 1016.3
20260902171547 72 192 6.0 15.0 0.00 0.38 0.38 92 1016.5
20260902170032 73 142 7.0 15.0 0.00 0.38 0.38 93 1016.7
20260902164555 72 143 4.0 12.0 0.00 0.38 0.38 92 1017.0
20260902163008 73 126 8.0 17.0 0.00 0.38 0.38 93 1017.0
20260902161531 73 145 7.0 14.0 0.00 0.38 0.38 95 1016.9
20260902154509 72 154 3.0 5.0 0.07 0.38 0.38 97 1016.7
20260902153038 71 165 2.0 5.0 0.23 0.38 0.38 97 1016.6
20260902151546 69 171 0.0 5.0 0.28 0.38 0.38 96 1016.6
20260902150007 68 161 2.0 14.0 0.32 0.36 0.36 95 1016.3
20260902144528 69 186 6.0 7.0 0.30 0.31 0.31 96 1017.7
20260902143103 69 186 5.0 10.0 0.15 0.15 0.15 96 1016.8
20260902143002 69 173 5.0 10.0 0.14 0.14 0.15 96 1016.6
20260902141526 69 186 4.0 9.0 0.09 0.09 0.09 96 1016.7
20260902140046 69 178 4.0 10.0 0.04 0.06 0.04 96 1016.6
20260902134504 69 188 4.0 16.0 0.01 0.03 0.01 96 1017.0
20260902133032 69 178 7.0 16.0 0.00 0.02 0.00 96 1017.3
20260902131552 70 193 3.0 12.0 0.00 0.02 0.00 96 1017.1
20260902130015 69 178 3.0 11.0 0.00 0.03 0.00 96 1016.7
20260902124606 69 193 4.0 8.0 0.00 0.03 0.00 96 1016.5
20260902123114 69 178 2.0 9.0 0.00 0.03 0.00 96 1016.4
20260902121516 69 191 8.0 9.0 0.00 0.03 0.00 96 1016.2
20260902120037 69 191 8.0 9.0 0.00 0.13 0.00 96 1016.2
20260902114556 69 191 8.0 9.0 0.00 0.13 0.00 97 1016.2
20260902113016 69 191 8.0 9.0 0.00 0.13 0.00 96 1016.1
20260902111545 69 191 8.0 9.0 0.00 0.13 0.00 97 1015.8
20260902104523 68 170 2.0 3.0 0.00 0.31 0.00 96 1015.8
20260902103047 68 191 3.0 8.0 0.00 0.31 0.00 97 1016.0
20260902101509 68 152 2.0 6.0 0.00 0.31 0.00 97 1016.2
20260902100053 67 169 2.0 8.0 0.00 0.35 0.00 97 1016.4
20260902094533 66 178 1.0 8.0 0.00 0.35 0.00 97 1016.2
20260902093018 65 1 0.0 3.0 0.00 0.35 0.00 96 1016.1
20260902091541 64 15 1.0 3.0 0.00 0.35 0.00 96 1016.1
20260902090055 63 25 2.0 3.0 0.00 0.35 0.00 95 1016.2
20260902084519 64 32 2.0 4.0 0.00 0.35 0.00 96 1016.3
20260902083042 63 1 1.0 3.0 0.00 0.35 0.00 95 1016.2
20260902081554 64 32 2.0 3.0 0.00 0.35 0.00 95 1016.1
20260902080014 64 1 1.0 3.0 0.00 0.41 0.00 96 1016.0
20260902074537 64 35 2.0 3.0 0.00 0.41 0.00 94 1015.9
20260902073057 64 28 2.0 3.0 0.00 0.41 0.00 95 1016.1
20260902071519 64 46 1.0 3.0 0.00 0.41 0.00 94 1016.1
20260902070100 64 40 2.0 3.0 0.00 0.41 0.00 94 1016.1
20260902070001 64 46 1.0 3.0 0.00 0.41 0.00 95 1016.1
20260902064546 64 46 1.0 4.0 0.00 0.41 0.00 94 1016.1
20260902063023 65 269 1.0 4.0 0.00 0.41 0.00 95 1016.3
20260902061606 65 351 3.0 5.0 0.00 0.41 0.00 94 1016.3
20260902060015 65 46 2.0 4.0 0.00 0.41 0.00 94 1016.3
20260902054535 66 18 2.0 3.0 0.00 0.41 0.00 94 1016.4
20260902053054 66 1 1.0 3.0 0.00 0.41 0.00 94 1016.3
20260902051518 66 15 2.0 5.0 0.00 0.41 0.00 94 1016.1
20260902050039 66 15 1.0 4.0 0.00 0.41 0.00 94 1016.1
20260902044559 67 89 1.0 2.0 0.00 0.41 0.00 94 1016.1
20260902044502 67 89 1.0 3.0 0.00 0.41 0.00 94 1016.1
20260902043033 67 23 2.0 3.0 0.00 0.41 0.00 94 1016.0
20260902041558 67 269 1.0 3.0 0.00 0.41 0.00 94 1015.9
20260902040028 67 35 1.0 3.0 0.00 0.41 0.41 94 1015.7
20260902034546 68 108 1.0 3.0 0.00 0.41 0.41 94 1015.7
20260902033006 68 28 2.0 4.0 0.00 0.41 0.41 93 1015.5
20260902031528 69 331 2.0 4.0 0.00 0.41 0.41 93 1015.5
20260902030046 69 1 2.0 5.0 0.00 0.41 0.41 94 1015.5
20260902024508 69 11 2.0 5.0 0.00 0.41 0.41 93 1015.7
20260902023051 70 295 2.0 4.0 0.00 0.41 0.41 93 1015.7
20260902021535 70 46 1.0 4.0 0.00 0.41 0.41 93 1015.5
20260902020039 70 314 1.0 4.0 0.00 0.42 0.41 93 1015.5
20260902014542 70 35 2.0 4.0 0.00 0.42 0.41 93 1015.4
20260902013009 70 1 2.0 4.0 0.00 0.42 0.41 93 1015.4
20260902011533 70 39 2.0 4.0 0.00 0.42 0.41 92 1015.3
20260902010058 71 39 1.0 3.0 0.00 0.48 0.41 92 1015.1
20260902004517 71 89 2.0 3.0 0.00 0.48 0.41 91 1014.7
20260902003044 72 223 1.0 4.0 0.00 0.48 0.41 91 1014.5
20260902001506 72 15 2.0 3.0 0.00 0.48 0.41 90 1014.4
20260902000031 73 1 2.0 3.0 0.00 0.51 0.41 90 1014.1
20260901234552 74 1 1.0 4.0 0.00 0.51 0.41 89 1014.1
20260901233040 75 178 0.0 3.0 0.00 0.51 0.41 87 1014.2
20260901231522 76 28 1.0 5.0 0.00 0.51 0.41 87 1014.1
20260901230058 77 82 2.0 4.0 0.00 0.54 0.41 86 1014.1
20260901224524 77 314 1.0 6.0 0.00 0.54 0.41 85 1014.2
20260901223101 78 353 2.0 9.0 0.00 0.54 0.41 84 1014.1
20260901221559 79 326 2.0 7.0 0.00 0.54 0.41 83 1014.1
20260901220039 79 28 4.0 8.0 0.00 0.65 0.41 83 1014.2
20260901214541 79 1 3.0 10.0 0.00 0.65 0.41 83 1014.1
20260901213058 80 28 7.0 14.0 0.00 0.65 0.41 82 1014.1
20260901211517 80 16 6.0 12.0 0.00 0.65 0.41 83 1014.0
20260901210046 80 334 3.0 10.0 0.00 0.70 0.41 83 1014.0
20260901204558 80 20 3.0 9.0 0.00 0.70 0.41 83 1013.9
20260901203040 79 1 6.0 13.0 0.00 0.70 0.41 82 1014.0
20260901201545 79 349 6.0 12.0 0.00 0.70 0.41 85 1014.0
20260901200020 78 30 5.0 9.0 0.00 0.75 0.41 85 1014.2